[[{"header":{"parameterUnit":"m.s-1","parameterCategory":1,"la1":30.2991,"la2":30.254,"lo1":-89.0895,"lo2":-89.0444,"dy":0.0017,"dx":0.0017,"nx":28,"ny":28,"refTime":"2025-11-27T09:00:00:Z","depth":0,"parameterNumber":2,"parameterNumberName":"U-component_of_WINDS"},"data":[0,0,0,0,0,0,0,0,0,0,0,0,0,0,0,0,0,0,0,0,0,0,0,0,0,0,0,0,0,0,0,0,0,0,0,0,0,0,0,0,0,0,0,0,0,0,0,0,0,0,0,0,0,0,0,0,0,0,0.2234,0.2234,0,0.2219,0.2219,0.2219,0.2227,0.2227,0.2228,0.2228,0.2212,0.2211,0.221,0,0,0,0,0,0,0,0,0,0,0,0,0,0.227,0.2269,0.2234,0.2234,0.2234,0.2219,0.2219,0.2219,0.2227,0.2227,0.2228,0.2228,0.2212,0.2211,0.221,0,0,0,0,0,0,0,0,0,0,0,0,0,0.2255,0.2269,0.2234,0.2236,0.2236,0.2219,0.2219,0.2219,0.2227,0.2227,0.2228,0.2228,0.2212,0.2211,0.221,0.219,0,0,0.2206,0.2206,0,0,0,0,0,0,0,0,0.2255,0.2253,0.2236,0.2236,0.2236,0.2225,0.2225,0.2209,0.2226,0.223,0.2228,0.2229,0.2216,0.2214,0.221,0.2189,0.2188,0.2206,0.2205,0.2205,0.2204,0,0,0,0,0,0,0,0.2256,0.2254,0.2228,0.2236,0.2236,0.2238,0.2236,0.2222,0.222,0.223,0.223,0.2229,0.2216,0.2211,0.221,0.2188,0.2206,0.2205,0.2204,0.2204,0.2151,0.215,0,0,0,0,0,0,0.2258,0.2255,0.2229,0.2228,0.2247,0.2237,0.2235,0.2228,0.222,0.2219,0.2228,0.2229,0.2213,0.2211,0.2209,0.2185,0.2205,0.2204,0.2203,0.2151,0.2151,0.215,0,0,0,0,0,0,0.2258,0.2255,0.2229,0.2241,0.2238,0.2235,0.2228,0.2228,0.2223,0.2218,0.2218,0.2224,0.2213,0.2211,0.2195,0.2185,0.2203,0.2202,0.2152,0.2151,0.215,0.2138,0,0,0,0,0,0,0.2259,0.2255,0.2248,0.2241,0.2238,0.2215,0.2227,0.2227,0.2221,0.2222,0.2214,0.2214,0.2214,0.2197,0.2194,0.2184,0.2201,0.2153,0.2152,0.2151,0.2139,0.2136,0.2134,0,0,0,0,0,0.226,0.2244,0.2247,0.2244,0.2228,0.2214,0.2212,0.2213,0.222,0.2212,0.221,0.2214,0.2187,0.2195,0.2192,0.2181,0.2154,0.2152,0.2151,0.214,0.2137,0.2134,0,0,0,0,0,0,0.2249,0.2243,0.2246,0.2228,0.2221,0.2216,0.2206,0.2209,0.2201,0.2202,0.2203,0.2201,0.2185,0.2181,0.2191,0.2162,0.2171,0.2169,0.2164,0.2161,0.2159,0.216,0.22,0,0,0,0,0,0.2244,0.2234,0.223,0.2213,0.221,0.2209,0.2203,0.2204,0.2198,0.2195,0.2191,0.2184,0.2175,0.2168,0.2158,0.2139,0.2137,0.213,0.2128,0.2126,0.2123,0.2113,0.211,0.2145,0.2145,0.2145,0,0,0.2234,0.223,0.2223,0.2211,0.2206,0.2196,0.2206,0.2194,0.2186,0.2193,0.2178,0.2175,0.2167,0.215,0.2142,0.2146,0.2114,0.2124,0.2122,0.2121,0.2112,0.2108,0.2105,0.2144,0.2144,0.2144,0,0,0.221,0.2206,0.2192,0.2188,0.2181,0.218,0.2177,0.2171,0.217,0.2154,0.2159,0.215,0.2133,0.2128,0.2123,0.2099,0.2102,0.2096,0.2083,0.2073,0.207,0.2068,0.2059,0.2056,0.2094,0.2094,0.2094,0,0.2198,0.2183,0.2185,0.2173,0.2167,0.2174,0.216,0.2155,0.2146,0.2142,0.2147,0.2127,0.2122,0.2103,0.2098,0.2094,0.209,0.2096,0.207,0.2068,0.2066,0.2058,0.2054,0.2093,0.2093,0.2093,0.2093,0,0.2169,0.2158,0.2148,0.2139,0.2132,0.2119,0.212,0.2113,0.2115,0.2114,0.2099,0.2094,0.2084,0.208,0.2081,0.2062,0.2065,0.207,0.208,0.2062,0.2054,0.2051,0.2092,0.2092,0.2092,0.2092,0,0,0.2136,0.2129,0.2125,0.2122,0.2115,0.2107,0.2095,0.2086,0.208,0.2073,0.2063,0.2049,0.2055,0.2049,0.2051,0.2042,0.2024,0.2049,0.2049,0.2044,0.2002,0.1997,0.1993,0.2026,0.2026,0.2025,0.2002,0,0.2111,0.209,0.2092,0.2072,0.2062,0.2069,0.2058,0.2053,0.2052,0.2044,0.2043,0.2033,0.2041,0.2037,0.2029,0.2027,0.2015,0.2029,0.2017,0.2016,0.2018,0.1989,0.1984,0.1962,0.1999,0.1999,0.1998,0,0.208,0.2073,0.2052,0.2048,0.2044,0.2034,0.2026,0.2018,0.2013,0.2013,0.2008,0.2011,0.1999,0.201,0.1993,0.2003,0.1998,0.1996,0.1996,0.1994,0.2006,0.1986,0.1955,0.1952,0.1994,0.1994,0.1994,0,0.2058,0.2043,0.2029,0.2026,0.2021,0.2014,0.2011,0.2007,0.2002,0.1995,0.1991,0.1983,0.1979,0.1972,0.1973,0.1981,0.1957,0.1967,0.1956,0.1956,0.195,0.195,0.1917,0.1948,0.1948,0.1948,0.1948,0,0.203,0.2017,0.2019,0.201,0.1996,0.1999,0.1985,0.1983,0.1979,0.197,0.1976,0.1967,0.1969,0.1961,0.1962,0.1948,0.1946,0.1945,0.1946,0.1945,0.1945,0.1941,0.1942,0.1947,0.1947,0.1947,0.1947,0,0.2002,0.2003,0.1988,0.1985,0.1984,0.1974,0.1971,0.1963,0.1963,0.1952,0.1949,0.1949,0.194,0.194,0.1929,0.193,0.1913,0.1915,0.1915,0.1915,0.1904,0.1905,0.1867,0.1862,0.1896,0.1896,0.1896,0,0.1984,0.1974,0.1971,0.1965,0.1963,0.1954,0.1949,0.1952,0.1946,0.194,0.1933,0.1924,0.1917,0.1902,0.19,0.1892,0.1894,0.1882,0.1893,0.1892,0.1894,0.1894,0.1893,0.1879,0.1879,0.1878,0.1878,0,0.1952,0.1953,0.1946,0.1939,0.1933,0.1927,0.1922,0.1917,0.192,0.1913,0.1904,0.1899,0.1888,0.188,0.1872,0.187,0.1874,0.1875,0.1872,0.187,0.187,0.187,0.1908,0.1875,0.1876,0.1876,0.1876,0.1876,0.1928,0.192,0.1916,0.1908,0.1905,0.19,0.1893,0.1892,0.1885,0.1877,0.1879,0.1869,0.1865,0.1855,0.1852,0.1844,0.1849,0.1844,0.1843,0.1842,0.184,0.1872,0.1843,0.1843,0.1843,0.1843,0.1843,0,0.1896,0.1894,0.1887,0.188,0.1874,0.188,0.1875,0.1869,0.186,0.1856,0.1849,0.1839,0.1831,0.183,0.1822,0.1816,0.1818,0.1814,0.1814,0.1813,0.1837,0.184,0.1812,0.1812,0.1812,0.1812,0.1812,0.1812,0.1878,0.1865,0.1866,0.1852,0.185,0.184,0.1837,0.1833,0.183,0.1818,0.1812,0.1811,0.1809,0.1801,0.1794,0.1794,0.1791,0.1786,0.1786,0.1808,0.1811,0.1814,0.1817,0.1785,0.1785,0.1763,0.1763,0.1763]},{"header":{"parameterUnit":"m.s-1","parameterCategory":1,"la1":30.2991,"la2":30.254,"lo1":-89.0895,"lo2":-89.0444,"dy":0.0017,"dx":0.0017,"nx":28,"ny":28,"refTime":"2025-11-27T09:00:00:Z","depth":0,"parameterNumber":3,"parameterNumberName":"V-component_of_WINDS"},"data":[0,0,0,0,0,0,0,0,0,0,0,0,0,0,0,0,0,0,0,0,0,0,0,0,0,0,0,0,0,0,0,0,0,0,0,0,0,0,0,0,0,0,0,0,0,0,0,0,0,0,0,0,0,0,0,0,0,0,-5.2219,-5.222,0,-5.2304,-5.2305,-5.2306,-5.2297,-5.2296,-5.2295,-5.2294,-5.2376,-5.2379,-5.2383,0,0,0,0,0,0,0,0,0,0,0,0,0,-5.2045,-5.2048,-5.2219,-5.222,-5.2221,-5.2304,-5.2305,-5.2306,-5.2298,-5.2296,-5.2294,-5.2293,-5.2375,-5.2379,-5.2383,0,0,0,0,0,0,0,0,0,0,0,0,0,-5.2124,-5.2049,-5.2218,-5.2227,-5.2228,-5.2304,-5.2305,-5.2307,-5.2298,-5.2296,-5.2294,-5.2292,-5.2373,-5.2378,-5.2383,-5.2455,0,0,-5.2399,-5.2401,0,0,0,0,0,0,0,0,-5.2119,-5.213,-5.2224,-5.2226,-5.2228,-5.2288,-5.2274,-5.2356,-5.2299,-5.2271,-5.2294,-5.2291,-5.2348,-5.2355,-5.2375,-5.2458,-5.2462,-5.24,-5.2403,-5.2405,-5.2406,0,0,0,0,0,0,0,-5.2114,-5.2127,-5.2252,-5.2226,-5.2228,-5.2225,-5.2234,-5.2289,-5.2319,-5.2274,-5.2273,-5.2284,-5.2349,-5.237,-5.2377,-5.2463,-5.2399,-5.2404,-5.2407,-5.2409,-5.261,-5.2612,0,0,0,0,0,0,-5.2107,-5.2122,-5.225,-5.2255,-5.2168,-5.223,-5.224,-5.2271,-5.2319,-5.2324,-5.2285,-5.2283,-5.2362,-5.2371,-5.238,-5.2467,-5.2405,-5.241,-5.2413,-5.2608,-5.2611,-5.2613,0,0,0,0,0,0,-5.2103,-5.2119,-5.2246,-5.2189,-5.2205,-5.2235,-5.227,-5.2274,-5.2295,-5.2328,-5.2333,-5.2302,-5.2361,-5.2373,-5.2437,-5.247,-5.2412,-5.2417,-5.2605,-5.2609,-5.2612,-5.2642,0,0,0,0,0,0,-5.2098,-5.2117,-5.2145,-5.2189,-5.2208,-5.2303,-5.2272,-5.2277,-5.2305,-5.2303,-5.2345,-5.235,-5.2361,-5.2429,-5.2442,-5.2476,-5.2421,-5.2603,-5.2607,-5.2611,-5.2638,-5.2646,-5.2653,0,0,0,0,0,-5.2092,-5.2149,-5.2147,-5.2162,-5.2244,-5.2305,-5.2315,-5.2327,-5.2308,-5.2336,-5.2357,-5.2349,-5.2465,-5.2436,-5.245,-5.2486,-5.26,-5.2606,-5.2611,-5.2635,-5.2645,-5.2653,0,0,0,0,0,0,-5.2106,-5.2155,-5.2153,-5.2226,-5.2262,-5.2303,-5.2339,-5.2337,-5.2377,-5.2373,-5.2386,-5.2395,-5.246,-5.2479,-5.2447,-5.2558,-5.253,-5.2538,-5.2543,-5.2553,-5.256,-5.2554,-5.2425,0,0,0,0,0,-5.2118,-5.2165,-5.2204,-5.2265,-5.2283,-5.2308,-5.2335,-5.2342,-5.2378,-5.2393,-5.2418,-5.2453,-5.2497,-5.2526,-5.2568,-5.2641,-5.2651,-5.2673,-5.2681,-5.2686,-5.2693,-5.2734,-5.2745,-5.263,-5.263,-5.263,0,0,-5.2142,-5.2175,-5.2203,-5.2268,-5.2297,-5.2344,-5.2321,-5.2371,-5.2406,-5.24,-5.2463,-5.2483,-5.2522,-5.2592,-5.2623,-5.261,-5.2727,-5.2693,-5.2697,-5.2701,-5.2741,-5.2752,-5.2761,-5.2634,-5.2633,-5.2632,0,0,-5.2211,-5.224,-5.2294,-5.2324,-5.2368,-5.2385,-5.2398,-5.2441,-5.2455,-5.2518,-5.2515,-5.2556,-5.2632,-5.2661,-5.2685,-5.2767,-5.2761,-5.278,-5.2818,-5.2858,-5.2867,-5.2875,-5.2905,-5.2916,-5.2787,-5.2787,-5.2787,0,-5.2235,-5.2308,-5.2322,-5.2374,-5.2403,-5.2402,-5.2457,-5.2484,-5.2539,-5.2559,-5.2543,-5.264,-5.2666,-5.2743,-5.2763,-5.2783,-5.2798,-5.2775,-5.2865,-5.2873,-5.2881,-5.291,-5.2921,-5.2789,-5.2789,-5.2789,-5.2789,0,-5.2335,-5.2386,-5.2424,-5.248,-5.2514,-5.2567,-5.2588,-5.262,-5.2624,-5.2642,-5.2708,-5.274,-5.2789,-5.2808,-5.2811,-5.2885,-5.2876,-5.2863,-5.2834,-5.2894,-5.2921,-5.2932,-5.2792,-5.2791,-5.2791,-5.279,0,0,-5.2413,-5.2479,-5.2493,-5.2519,-5.2568,-5.2607,-5.266,-5.2711,-5.2738,-5.2776,-5.2821,-5.2886,-5.2875,-5.2903,-5.291,-5.2945,-5.3009,-5.2928,-5.2929,-5.2942,-5.3093,-5.3103,-5.3115,-5.3006,-5.3008,-5.301,-5.309,0,-5.2488,-5.2584,-5.2599,-5.2683,-5.2731,-5.2731,-5.2777,-5.2812,-5.2831,-5.2873,-5.2892,-5.2939,-5.292,-5.2938,-5.2972,-5.2994,-5.3039,-5.2988,-5.3047,-5.3049,-5.3037,-5.3129,-5.314,-5.3214,-5.3101,-5.3102,-5.3104,0,-5.2586,-5.263,-5.272,-5.2765,-5.2785,-5.2827,-5.2875,-5.2916,-5.2955,-5.2966,-5.2999,-5.3002,-5.3057,-5.3026,-5.3101,-5.3066,-5.3091,-5.3105,-5.3109,-5.3114,-5.308,-5.3138,-5.3238,-5.3249,-5.312,-5.3119,-5.3118,0,-5.2636,-5.2717,-5.2781,-5.2803,-5.2857,-5.2887,-5.291,-5.2948,-5.2978,-5.302,-5.304,-5.3086,-5.3112,-5.3148,-5.3163,-5.314,-5.3238,-5.3208,-5.3248,-5.3248,-5.3268,-5.3267,-5.3374,-5.3284,-5.3284,-5.3284,-5.3283,0,-5.2717,-5.2771,-5.2804,-5.2844,-5.2905,-5.2922,-5.2982,-5.3005,-5.3039,-5.3082,-5.3085,-5.3125,-5.3143,-5.3186,-5.3199,-5.3259,-5.3271,-5.3281,-5.3283,-5.3281,-5.328,-5.3297,-5.3292,-5.3287,-5.3286,-5.3285,-5.3285,0,-5.2782,-5.2806,-5.2876,-5.2923,-5.2936,-5.2979,-5.3018,-5.3056,-5.3075,-5.313,-5.3144,-5.3173,-5.3224,-5.3244,-5.3305,-5.3313,-5.3384,-5.3382,-5.3371,-5.3372,-5.3411,-5.3407,-5.3533,-5.355,-5.3449,-5.345,-5.345,0,-5.2832,-5.2875,-5.2926,-5.2957,-5.2982,-5.3031,-5.3062,-5.308,-5.3113,-5.3163,-5.3195,-5.3246,-5.3288,-5.3369,-5.3395,-5.3442,-5.3442,-5.3483,-5.3449,-5.3445,-5.3443,-5.3441,-5.3445,-5.3489,-5.349,-5.3491,-5.3491,0,-5.2919,-5.2929,-5.2976,-5.3027,-5.3065,-5.3106,-5.3145,-5.3169,-5.3193,-5.323,-5.3283,-5.3316,-5.338,-5.3431,-5.348,-5.3503,-5.3501,-5.3502,-5.3514,-5.3512,-5.3504,-5.3509,-5.3389,-5.3499,-5.3498,-5.3498,-5.3497,-5.3497,-5.2978,-5.3017,-5.306,-5.3112,-5.3144,-5.3182,-5.322,-5.3246,-5.3291,-5.3346,-5.3354,-5.3411,-5.3451,-5.3517,-5.3542,-5.3586,-5.3575,-5.3592,-5.3596,-5.36,-5.3603,-5.3497,-5.3595,-5.3595,-5.3594,-5.3594,-5.3594,0,-5.3066,-5.3095,-5.3142,-5.3199,-5.324,-5.3237,-5.3281,-5.3315,-5.3366,-5.3404,-5.3446,-5.3508,-5.3558,-5.3589,-5.3638,-5.3668,-5.3669,-5.3681,-5.3679,-5.3684,-5.361,-5.3595,-5.3679,-5.3679,-5.3679,-5.3679,-5.3679,-5.3679,-5.3117,-5.3182,-5.3198,-5.328,-5.3307,-5.3366,-5.3391,-5.3425,-5.3456,-5.3526,-5.3568,-5.3588,-5.3624,-5.3676,-5.3722,-5.373,-5.3748,-5.3761,-5.3768,-5.3698,-5.3689,-5.3681,-5.3667,-5.3765,-5.3765,-5.3838,-5.3839,-5.3839]}]]